GEC9797 VHHH-EDDF

Flight info

Callsign GEC9797
Flight time N/A
Altitude 27600
Route BEKOL A461 SHL W22 TEPID W24 OSNOV G586 QP B330 ELKAL W179 IGNAK/K0933S0890 W179 WFX/K0928S0920 W179 OMBON W195 VIDEK/K0924S0890 W195 LAXAL/K0919S0920 W195 IDOPA W197 ANDIM B215 IBANO G470 AKLAS W192 FKG A368 IKARA/K0896S0980 A368 SARIN/K0900F320 N161 RELGE/K0887F340 N161 GASBI/N0482F340 N161 LEYLA N644 LAGAS DCT SARPI UM10 OLUPO UL851 KARDE UN644 INB UL746 ODERO DCT OPT DCT SOKRU DCT ARSIN DCT SUBEN T161 DEBHI DEBHI1B
Aircraft B77L/H-SDE1E2E3FGHIJ2J3J4J5M1RWXY/LB1D1

Departure

Time N/A
Airport Hong Kong International Airport (VHHH)

Arrival

Time 2026-04-15 13:30
Airport Frankfurt Main Airport (EDDF)
Time Latitude Longitude Altitude Speed Heading
2026-04-15 12:35 47.94897 15.31555 28241 ft 449 kts 291°
2026-04-15 12:35 47.97135 15.22838 28240 ft 448 kts 291°
2026-04-15 12:36 47.99342 15.14211 28243 ft 449 kts 291°
2026-04-15 12:36 48.01549 15.05554 28251 ft 447 kts 291°
2026-04-15 12:37 48.03761 14.96840 28264 ft 448 kts 291°
2026-04-15 12:37 48.05954 14.88169 28263 ft 449 kts 291°
2026-04-15 12:38 48.08135 14.79513 28262 ft 448 kts 291°
2026-04-15 12:38 48.10278 14.70978 28261 ft 446 kts 291°
2026-04-15 12:39 48.12428 14.62379 28265 ft 447 kts 291°
2026-04-15 12:39 48.14575 14.53759 28270 ft 453 kts 291°
2026-04-15 12:39 48.15693 14.49257 28279 ft 472 kts 291°
2026-04-15 12:40 48.16824 14.44697 28270 ft 467 kts 291°
2026-04-15 12:40 48.17934 14.40207 28270 ft 450 kts 291°
2026-04-15 12:40 48.18997 14.35903 28274 ft 441 kts 291°
2026-04-15 12:41 48.21101 14.27357 28280 ft 446 kts 290°
2026-04-15 12:41 48.23033 14.19475 28281 ft 444 kts 290°
2026-04-15 12:42 48.25164 14.10755 28280 ft 445 kts 290°
2026-04-15 12:42 48.27289 14.02026 28277 ft 445 kts 290°
2026-04-15 12:43 48.29387 13.93370 28272 ft 443 kts 290°
2026-04-15 12:43 48.31482 13.84697 28269 ft 444 kts 290°
2026-04-15 12:44 48.33568 13.76023 28265 ft 443 kts 290°
2026-04-15 12:44 48.35668 13.67258 28263 ft 445 kts 290°
2026-04-15 12:45 48.37735 13.58597 28259 ft 442 kts 290°
2026-04-15 12:45 48.39811 13.49864 28258 ft 442 kts 290°
2026-04-15 12:46 48.41870 13.41166 28261 ft 443 kts 290°
2026-04-15 12:46 48.43849 13.32777 28262 ft 440 kts 290°
2026-04-15 12:47 48.46009 13.24555 28267 ft 442 kts 291°
2026-04-15 12:47 48.48274 13.16035 28265 ft 441 kts 291°
2026-04-15 12:48 48.50542 13.07438 28262 ft 440 kts 291°
2026-04-15 12:48 48.52824 12.98730 28266 ft 464 kts 291°
2026-04-15 12:48 48.54030 12.94114 28266 ft 480 kts 291°
2026-04-15 12:49 48.55271 12.89354 28265 ft 496 kts 291°
2026-04-15 12:49 48.57796 12.79644 28264 ft 499 kts 291°
2026-04-15 12:50 48.60329 12.69855 28264 ft 499 kts 291°
2026-04-15 12:50 48.62837 12.60119 28263 ft 499 kts 291°
2026-04-15 12:51 48.65335 12.50384 28262 ft 499 kts 291°
2026-04-15 12:51 48.67828 12.40623 28261 ft 499 kts 291°
2026-04-15 12:52 48.70288 12.30949 28262 ft 497 kts 290°
2026-04-15 12:52 48.72784 12.21091 28262 ft 499 kts 290°
2026-04-15 12:53 48.75478 12.11642 28262 ft 498 kts 298°
2026-04-15 12:53 48.78897 12.02544 28261 ft 498 kts 299°
2026-04-15 12:54 48.82331 11.93437 28261 ft 497 kts 299°
2026-04-15 12:54 48.85730 11.84391 28260 ft 497 kts 299°
2026-04-15 12:55 48.89130 11.75311 28257 ft 497 kts 299°
2026-04-15 12:55 48.92539 11.66178 28254 ft 496 kts 299°
2026-04-15 12:56 48.95925 11.57072 28253 ft 497 kts 299°
2026-04-15 12:56 48.99322 11.47906 28251 ft 496 kts 299°
2026-04-15 12:57 49.02695 11.38771 28249 ft 495 kts 299°
2026-04-15 12:57 49.05999 11.29794 28253 ft 495 kts 298°
2026-04-15 12:58 49.09315 11.20752 28256 ft 496 kts 298°
2026-04-15 12:58 49.12661 11.11599 28258 ft 495 kts 298°
2026-04-15 12:59 49.17554 10.98149 28262 ft 494 kts 298°
2026-04-15 12:59 49.20781 10.89244 28262 ft 494 kts 298°
2026-04-15 13:00 49.24103 10.80045 28257 ft 492 kts 298°
2026-04-15 13:00 49.25722 10.75549 27941 ft 481 kts 298°
2026-04-15 13:00 49.27317 10.71115 27368 ft 475 kts 298°
2026-04-15 13:01 49.28898 10.66711 26780 ft 469 kts 298°
2026-04-15 13:01 49.30463 10.62340 26228 ft 463 kts 298°
2026-04-15 13:01 49.31990 10.58071 25697 ft 457 kts 298°
2026-04-15 13:01 49.33489 10.53875 25163 ft 450 kts 298°
2026-04-15 13:02 49.34989 10.49665 24629 ft 444 kts 298°
2026-04-15 13:02 49.36520 10.45669 24128 ft 439 kts 303°
2026-04-15 13:02 49.38247 10.41845 23764 ft 430 kts 304°
2026-04-15 13:02 49.39945 10.38137 23444 ft 420 kts 304°
2026-04-15 13:03 49.41545 10.34639 23128 ft 412 kts 304°
2026-04-15 13:03 49.43164 10.31090 22800 ft 403 kts 304°
2026-04-15 13:03 49.44683 10.27760 22484 ft 396 kts 304°
2026-04-15 13:03 49.46260 10.24295 22156 ft 392 kts 303°
2026-04-15 13:04 49.47749 10.21016 21846 ft 391 kts 303°
2026-04-15 13:04 49.49318 10.17557 21517 ft 390 kts 303°
2026-04-15 13:04 49.50858 10.14159 21196 ft 389 kts 303°
2026-04-15 13:04 49.52399 10.10753 20875 ft 387 kts 303°
2026-04-15 13:05 49.53933 10.07360 20556 ft 385 kts 303°
2026-04-15 13:05 49.55441 10.04017 20239 ft 384 kts 303°
2026-04-15 13:05 49.56952 10.00664 19926 ft 384 kts 303°
2026-04-15 13:05 49.58484 9.97260 19607 ft 381 kts 303°
2026-04-15 13:06 49.59968 9.93958 19295 ft 380 kts 303°
2026-04-15 13:06 49.61468 9.90616 18979 ft 379 kts 303°
2026-04-15 13:06 49.62968 9.87270 18665 ft 378 kts 303°
2026-04-15 13:06 49.64446 9.83967 18356 ft 376 kts 303°
2026-04-15 13:07 49.65916 9.80682 18052 ft 373 kts 303°
2026-04-15 13:07 49.67397 9.77366 17738 ft 372 kts 303°
2026-04-15 13:07 49.68856 9.74093 17434 ft 370 kts 303°
2026-04-15 13:07 49.70301 9.70849 17129 ft 369 kts 303°
2026-04-15 13:08 49.71746 9.67602 16823 ft 367 kts 303°
2026-04-15 13:08 49.73202 9.64327 16514 ft 366 kts 303°
2026-04-15 13:08 49.74631 9.61106 16213 ft 364 kts 303°
2026-04-15 13:08 49.76037 9.57935 15913 ft 362 kts 303°
2026-04-15 13:09 49.77467 9.54704 15611 ft 361 kts 303°
2026-04-15 13:09 49.78870 9.51529 15311 ft 359 kts 303°
2026-04-15 13:09 49.80269 9.48362 15013 ft 358 kts 303°
2026-04-15 13:09 49.81665 9.45195 14716 ft 356 kts 303°
2026-04-15 13:10 49.83055 9.42039 14421 ft 354 kts 303°
2026-04-15 13:10 49.84448 9.38876 14125 ft 352 kts 303°
2026-04-15 13:10 49.85774 9.35723 13833 ft 351 kts 298°
2026-04-15 13:10 49.86694 9.32234 13547 ft 348 kts 287°
2026-04-15 13:11 49.87353 9.28924 13287 ft 347 kts 286°
2026-04-15 13:11 49.88001 9.25565 13020 ft 345 kts 286°
2026-04-15 13:11 49.88683 9.22004 12736 ft 345 kts 286°
2026-04-15 13:11 49.89362 9.18447 12450 ft 343 kts 286°
2026-04-15 13:12 49.90046 9.14856 12163 ft 343 kts 286°
2026-04-15 13:12 49.90715 9.11340 11881 ft 341 kts 286°
2026-04-15 13:12 49.91377 9.07852 11603 ft 340 kts 286°
2026-04-15 13:12 49.92047 9.04315 11319 ft 339 kts 286°
2026-04-15 13:13 49.92710 9.00834 11033 ft 334 kts 286°
2026-04-15 13:13 49.93366 8.97404 10741 ft 327 kts 286°
2026-04-15 13:13 49.93996 8.94107 10463 ft 320 kts 286°
2026-04-15 13:13 49.94627 8.90798 10169 ft 314 kts 286°
2026-04-15 13:14 49.95239 8.87579 9838 ft 310 kts 286°
2026-04-15 13:14 49.95836 8.84431 9514 ft 306 kts 286°
2026-04-15 13:14 49.96438 8.81255 9195 ft 301 kts 286°
2026-04-15 13:14 49.97017 8.78191 8888 ft 297 kts 287°
2026-04-15 13:15 49.97596 8.75124 8581 ft 293 kts 287°
2026-04-15 13:15 49.97910 8.72019 8260 ft 289 kts 266°
2026-04-15 13:15 49.97519 8.69004 7984 ft 285 kts 254°
2026-04-15 13:15 49.96901 8.66138 7718 ft 280 kts 251°
2026-04-15 13:16 49.96232 8.63308 7450 ft 276 kts 250°
2026-04-15 13:16 49.95565 8.60532 7183 ft 272 kts 250°
2026-04-15 13:16 49.94902 8.57781 6919 ft 269 kts 250°
2026-04-15 13:16 49.94253 8.55089 6660 ft 265 kts 251°
2026-04-15 13:17 49.93618 8.52457 6408 ft 261 kts 250°
2026-04-15 13:17 49.92981 8.49822 6092 ft 261 kts 250°
2026-04-15 13:17 49.92343 8.47182 5724 ft 262 kts 251°
2026-04-15 13:17 49.91711 8.44556 5434 ft 260 kts 250°
2026-04-15 13:18 49.91077 8.41930 5178 ft 256 kts 251°
2026-04-15 13:18 49.90468 8.39407 5104 ft 251 kts 250°
2026-04-15 13:18 49.89851 8.36857 5098 ft 252 kts 250°
2026-04-15 13:18 49.89254 8.34389 5062 ft 251 kts 250°
2026-04-15 13:19 49.88656 8.31923 4826 ft 251 kts 250°
2026-04-15 13:19 49.88092 8.29406 4573 ft 250 kts 259°
2026-04-15 13:19 49.88168 8.26761 4278 ft 248 kts 289°
2026-04-15 13:19 49.88923 8.24411 4109 ft 245 kts 294°
2026-04-15 13:20 49.89239 8.21812 4079 ft 247 kts 264°
2026-04-15 13:20 49.88794 8.19266 4086 ft 249 kts 246°
2026-04-15 13:20 49.88038 8.16829 4091 ft 248 kts 243°
2026-04-15 13:20 49.87258 8.14448 4090 ft 248 kts 243°
2026-04-15 13:21 49.86657 8.11988 4078 ft 247 kts 264°
2026-04-15 13:21 49.86860 8.09371 4084 ft 247 kts 290°
2026-04-15 13:21 49.87712 8.07080 4078 ft 246 kts 316°
2026-04-15 13:21 49.89034 8.05405 4091 ft 248 kts 323°
2026-04-15 13:22 49.90429 8.03815 4091 ft 247 kts 323°
2026-04-15 13:22 49.91834 8.02314 4078 ft 241 kts 333°
2026-04-15 13:22 49.93389 8.01791 4069 ft 224 kts
2026-04-15 13:22 49.94758 8.02623 4075 ft 201 kts 39°
2026-04-15 13:23 49.95434 8.04338 4048 ft 182 kts 81°
2026-04-15 13:23 49.95347 8.06208 4083 ft 171 kts 98°
2026-04-15 13:23 49.95153 8.07999 4095 ft 167 kts 99°
2026-04-15 13:23 49.94962 8.09765 4094 ft 165 kts 99°
2026-04-15 13:24 49.94796 8.11524 4095 ft 165 kts 91°
2026-04-15 13:24 49.94926 8.13280 4096 ft 164 kts 75°
2026-04-15 13:24 49.95262 8.14961 4095 ft 163 kts 70°
2026-04-15 13:24 49.95659 8.16627 4096 ft 164 kts 68°
2026-04-15 13:25 49.96066 8.18269 4096 ft 164 kts 68°
2026-04-15 13:25 49.96477 8.19923 4095 ft 163 kts 68°
2026-04-15 13:25 49.96882 8.21565 4094 ft 163 kts 68°
2026-04-15 13:25 49.97290 8.23228 3994 ft 167 kts 68°
2026-04-15 13:26 49.97698 8.24899 3778 ft 163 kts 68°
2026-04-15 13:26 49.98097 8.26534 3560 ft 162 kts 68°
2026-04-15 13:26 49.98496 8.28175 3342 ft 162 kts 68°
2026-04-15 13:26 49.98895 8.29813 3124 ft 162 kts 69°
2026-04-15 13:27 49.99288 8.31433 2904 ft 160 kts 69°
2026-04-15 13:27 49.99682 8.33060 2681 ft 160 kts 69°
2026-04-15 13:27 50.00071 8.34667 2462 ft 159 kts 69°
2026-04-15 13:27 50.00464 8.36287 2238 ft 159 kts 69°
2026-04-15 13:28 50.00853 8.37893 2015 ft 158 kts 70°
2026-04-15 13:28 50.01232 8.39466 1794 ft 157 kts 70°
2026-04-15 13:28 50.01618 8.41062 1569 ft 157 kts 70°
2026-04-15 13:28 50.01998 8.42636 1346 ft 156 kts 70°
2026-04-15 13:29 50.02381 8.44211 1111 ft 154 kts 70°
2026-04-15 13:29 50.02763 8.45771 873 ft 151 kts 70°
2026-04-15 13:29 50.03128 8.47285 671 ft 150 kts 71°
2026-04-15 13:29 50.03498 8.48822 477 ft 154 kts 71°
2026-04-15 13:30 50.03860 8.50362 318 ft 143 kts 68°
2026-04-15 13:30 50.04170 8.51644 333 ft 111 kts 70°
2026-04-15 13:30 50.04382 8.52547 340 ft 62 kts 77°
2026-04-15 13:30 50.04368 8.53024 345 ft 38 kts 98°
2026-04-15 13:31 50.04374 8.53407 348 ft 34 kts 70°
2026-04-15 13:31 50.04410 8.53758 349 ft 31 kts 83°
2026-04-15 13:31 50.04433 8.54083 348 ft 29 kts 80°
2026-04-15 13:31 50.04451 8.54391 347 ft 28 kts 84°
2026-04-15 13:32 50.04400 8.54656 347 ft 25 kts 129°
2026-04-15 13:32 50.04261 8.54801 347 ft 23 kts 159°
2026-04-15 13:32 50.04114 8.54885 347 ft 22 kts 160°
2026-04-15 13:32 50.03987 8.54875 346 ft 19 kts 237°
2026-04-15 13:33 50.03966 8.54698 345 ft 13 kts 324°
2026-04-15 13:33 50.04038 8.54704 346 ft 11 kts 62°
2026-04-15 13:33 50.04055 8.54768 346 ft 1 kts 69°
2026-04-15 13:33 50.04056 8.54772 346 ft 0 kts 69°